Location: Wanzleben
(52.0609°N, 11.4408°E)
Time: 07:06:23
(UTC+00:00)

CREW DRAGON DEMO-1 DEB - Pass Details

Date: 18 September 2020
Orbit: 362 x 365 km, 51.6° (Epoch: 19 October)

Event Time Altitude Azimuth Distance (km) Brightness Sun altitude
Rises 18:42:04 0° 270° (W) 2,198 8.2 -13.0°
Reaches altitude 10° 18:44:06 10° 270° (W) 1,352 6.8 -13.3°
Maximum altitude 18:47:07 85° 185° (S) 371 2.7 -13.7°
Enters shadow 18:48:25 31° 96° (E) 674 3.5 -13.9°
